QPF
0.00 0.00 0.00 0.00 0.00 0.00 0.00 0.00 0.00 0.00 0.00 0.00 0.00 0.00 0.00 0.00 0.01 0.01 0.00 0.00 0.00 0.00 0.00 0.00 0.01 0.01 0.02 0.02 0.03 0.04 0.04 0.05 0.07 0.08 0.10 0.10 0.08 0.10 0.09 0.07 0.09 0.12 0.12 0.10 0.07 0.06 0.08 0.09 0.09
0.00 0.00 0.00 0.00 0.00 0.00 0.00 0.00 0.00 0.00 0.00 0.00 0.00 0.00 0.00 0.00 0.00 0.00 0.01 0.00 0.00 0.00 0.00 0.00 0.01 0.02 0.02 0.02 0.03 0.04 0.03 0.03 0.04 0.06 0.07 0.10 0.10 0.10 0.11 0.11 0.13 0.14 0.14 0.12 0.10 0.07 0.09 0.09 0.09
0.00 0.00 0.00 0.00 0.00 0.01 0.01 0.01 0.01 0.00 0.00 0.00 0.00 0.00 0.01 0.01 0.00 0.00 0.01 0.00 0.00 0.00 0.00 0.01 0.02 0.03 0.02 0.02 0.02 0.03 0.03 0.04 0.05 0.05 0.05 0.06 0.09 0.10 0.09 0.12 0.15 0.15 0.14 0.12 0.13 0.10 0.10 0.08 0.08
0.00 0.00 0.00 0.00 0.00 0.00 0.01 0.00 0.00 0.00 0.00 0.00 0.00 0.00 0.00 0.01 0.00 0.00 0.00 0.00 0.00 0.00 0.00 0.01 0.03 0.04 0.03 0.02 0.01 0.02 0.03 0.04 0.05 0.05 0.05 0.05 0.08 0.10 0.09 0.11 0.13 0.11 0.12 0.14 0.13 0.11 0.10 0.08 0.06
0.00 0.00 0.00 0.00 0.00 0.00 0.00 0.00 0.00 0.00 0.00 0.00 0.00 0.00 0.01 0.01 0.00 0.00 0.00 0.00 0.00 0.00 0.00 0.01 0.02 0.04 0.05 0.04 0.03 0.02 0.03 0.04 0.05 0.05 0.05 0.04 0.06 0.09 0.10 0.11 0.12 0.12 0.13 0.13 0.11 0.13 0.12 0.11 0.09
0.00 0.00 0.00 0.00 0.00 0.00 0.00 0.00 0.00 0.00 0.00 0.00 0.00 0.00 0.01 0.00 0.00 0.00 0.00 0.00 0.00 0.00 0.00 0.01 0.02 0.04 0.05 0.05 0.04 0.02 0.02 0.03 0.04 0.05 0.06 0.05 0.06 0.07 0.09 0.13 0.13 0.13 0.13 0.13 0.14 0.13 0.08 0.08 0.08
0.00 0.00 0.00 0.00 0.00 0.00 0.00 0.00 0.00 0.00 0.00 0.00 0.00 0.00 0.01 0.01 0.00 0.01 0.00 0.00 0.01 0.01 0.01 0.01 0.02 0.03 0.05 0.04 0.03 0.01 0.02 0.03 0.04 0.04 0.04 0.05 0.07 0.09 0.10 0.14 0.15 0.13 0.11 0.12 0.15 0.12 0.06 0.06 0.10
0.00 0.00 0.00 0.00 0.00 0.00 0.00 0.00 0.00 0.00 0.00 0.00 0.00 0.00 0.01 0.01 0.01 0.00 0.00 0.00 0.01 0.01 0.01 0.01 0.02 0.02 0.03 0.04 0.02 0.02 0.02 0.04 0.05 0.04 0.04 0.05 0.07 0.12 0.19 0.20 0.17 0.14 0.13 0.12 0.11 0.11 0.09 0.08 0.10
0.00 0.00 0.00 0.00 0.00 0.00 0.00 0.00 0.00 0.00 0.00 0.00 0.00 0.00 0.01 0.01 0.01 0.01 0.01 0.00 0.01 0.01 0.02 0.01 0.01 0.02 0.03 0.02 0.02 0.02 0.02 0.03 0.04 0.04 0.04 0.04 0.07 0.12 0.18 0.21 0.17 0.12 0.10 0.10 0.11 0.11 0.11 0.12 0.12
0.00 0.00 0.00 0.00 0.00 0.00 0.00 0.00 0.00 0.00 0.00 0.00 0.00 0.00 0.01 0.01 0.01 0.01 0.00 0.00 0.01 0.01 0.01 0.02 0.01 0.02 0.02 0.01 0.01 0.02 0.02 0.03 0.04 0.05 0.05 0.05 0.06 0.08 0.11 0.14 0.12 0.10 0.09 0.11 0.12 0.11 0.11 0.10 0.09
0.00 0.00 0.00 0.00 0.00 0.00 0.00 0.00 0.00 0.00 0.00 0.00 0.00 0.00 0.00 0.00 0.01 0.01 0.00 0.01 0.01 0.01 0.01 0.01 0.02 0.03 0.02 0.01 0.01 0.02 0.02 0.04 0.04 0.05 0.05 0.05 0.06 0.07 0.08 0.10 0.10 0.10 0.10 0.11 0.10 0.09 0.09 0.08 0.08
0.00 0.00 0.00 0.00 0.00 0.00 0.00 0.00 0.00 0.00 0.00 0.00 0.00 0.00 0.00 0.00 0.01 0.01 0.01 0.01 0.01 0.01 0.01 0.01 0.01 0.02 0.02 0.02 0.01 0.01 0.02 0.04 0.05 0.04 0.04 0.05 0.06 0.07 0.07 0.08 0.08 0.08 0.08 0.08 0.07 0.06 0.08 0.07 0.07
0.00 0.00 0.00 0.00 0.00 0.00 0.00 0.00 0.00 0.00 0.00 0.00 0.00 0.00 0.00 0.01 0.02 0.02 0.01 0.01 0.01 0.01 0.01 0.01 0.01 0.02 0.02 0.02 0.02 0.01 0.02 0.02 0.04 0.04 0.04 0.05 0.07 0.07 0.07 0.07 0.08 0.07 0.06 0.06 0.06 0.06 0.07 0.09 0.09
0.00 0.00 0.00 0.00 0.00 0.00 0.00 0.00 0.00 0.00 0.00 0.00 0.00 0.01 0.01 0.01 0.01 0.02 0.02 0.01 0.01 0.01 0.02 0.02 0.01 0.02 0.02 0.02 0.03 0.03 0.02 0.02 0.02 0.03 0.04 0.04 0.05 0.06 0.07 0.10 0.14 0.11 0.07 0.06 0.06 0.06 0.07 0.08 0.09
0.00 0.00 0.00 0.00 0.00 0.00 0.00 0.00 0.00 0.00 0.00 0.00 0.00 0.01 0.01 0.01 0.01 0.02 0.02 0.01 0.01 0.01 0.01 0.01 0.02 0.01 0.01 0.02 0.02 0.02 0.02 0.02 0.02 0.03 0.03 0.03 0.04 0.05 0.05 0.08 0.14 0.18 0.13 0.08 0.07 0.07 0.07 0.06 0.07
0.00 0.00 0.00 0.00 0.00 0.00 0.00 0.00 0.00 0.00 0.00 0.00 0.00 0.01 0.01 0.01 0.02 0.01 0.02 0.03 0.02 0.02 0.02 0.02 0.01 0.01 0.01 0.01 0.02 0.01 0.01 0.02 0.03 0.03 0.04 0.03 0.03 0.04 0.05 0.06 0.08 0.12 0.14 0.13 0.12 0.10 0.08 0.07 0.08
0.00 0.00 0.00 0.00 0.00 0.00 0.00 0.00 0.00 0.00 0.00 0.00 0.00 0.00 0.01 0.02 0.02 0.01 0.02 0.03 0.04 0.04 0.03 0.03 0.03 0.01 0.01 0.01 0.02 0.02 0.01 0.02 0.02 0.02 0.02 0.03 0.04 0.05 0.07 0.05 0.05 0.05 0.07 0.08 0.08 0.08 0.09 0.08 0.09
0.00 0.00 0.00 0.00 0.00 0.00 0.00 0.00 0.00 0.00 0.00 0.00 0.00 0.00 0.02 0.07 0.10 0.08 0.05 0.05 0.04 0.04 0.03 0.04 0.02 0.01 0.01 0.02 0.02 0.02 0.01 0.01 0.01 0.02 0.03 0.04 0.05 0.05 0.04 0.03 0.03 0.02 0.04 0.05 0.06 0.08 0.07 0.07 0.09
0.00 0.00 0.00 0.00 0.00 0.00 0.00 0.00 0.00 0.00 0.00 0.00 0.00 0.01 0.04 0.09 0.10 0.08 0.08 0.07 0.05 0.05 0.03 0.03 0.02 0.02 0.03 0.03 0.03 0.02 0.02 0.01 0.01 0.01 0.02 0.04 0.08 0.06 0.04 0.03 0.04 0.03 0.04 0.04 0.05 0.07 0.07 0.07 0.08
0.00 0.00 0.00 0.00 0.00 0.00 0.00 0.00 0.00 0.00 0.00 0.00 0.00 0.00 0.01 0.02 0.03 0.03 0.03 0.03 0.03 0.03 0.03 0.02 0.01 0.02 0.02 0.02 0.02 0.02 0.02 0.02 0.02 0.03 0.03 0.05 0.06 0.03 0.02 0.04 0.04 0.04 0.05 0.06 0.05 0.06 0.07 0.07 0.08
0.00 0.00 0.00 0.00 0.00 0.00 0.00 0.00 0.00 0.00 0.00 0.00 0.00 0.00 0.01 0.01 0.01 0.01 0.01 0.01 0.01 0.01 0.01 0.01 0.01 0.02 0.03 0.02 0.02 0.02 0.02 0.02 0.02 0.03 0.04 0.03 0.03 0.04 0.03 0.04 0.04 0.05 0.04 0.05 0.07 0.08 0.09 0.09 0.07
0.00 0.00 0.00 0.00 0.00 0.00 0.00 0.01 0.00 0.00 0.01 0.01 0.00 0.00 0.00 0.01 0.01 0.01 0.01 0.01 0.01 0.00 0.00 0.01 0.02 0.03 0.04 0.03 0.03 0.03 0.03 0.04 0.04 0.05 0.04 0.03 0.03 0.04 0.04 0.04 0.05 0.06 0.06 0.07 0.08 0.07 0.08 0.09 0.08
0.00 0.00 0.00 0.00 0.00 0.00 0.01 0.01 0.01 0.00 0.00 0.00 0.00 0.00 0.00 0.01 0.01 0.01 0.00 0.00 0.00 0.00 0.01 0.01 0.02 0.03 0.04 0.02 0.02 0.03 0.03 0.03 0.04 0.04 0.03 0.03 0.03 0.03 0.03 0.03 0.04 0.05 0.06 0.09 0.11 0.10 0.06 0.05 0.06
0.00 0.00 0.00 0.00 0.00 0.00 0.00 0.01 0.01 0.01 0.01 0.01 0.01 0.00 0.01 0.01 0.01 0.00 0.00 0.00 0.00 0.00 0.01 0.01 0.01 0.02 0.02 0.03 0.03 0.03 0.03 0.03 0.04 0.03 0.02 0.02 0.02 0.01 0.02 0.03 0.03 0.03 0.03 0.05 0.09 0.11 0.08 0.06 0.06
0.00 0.00 0.00 0.00 0.00 0.00 0.00 0.00 0.01 0.01 0.01 0.01 0.02 0.03 0.04 0.03 0.01 0.00 0.00 0.01 0.00 0.00 0.01 0.01 0.01 0.01 0.01 0.02 0.02 0.02 0.05 0.05 0.05 0.04 0.02 0.02 0.02 0.01 0.01 0.02 0.03 0.03 0.03 0.03 0.05 0.07 0.09 0.07 0.06
0.00 0.00 0.00 0.01 0.00 0.00 0.00 0.00 0.01 0.01 0.01 0.01 0.02 0.04 0.06 0.05 0.02 0.01 0.01 0.01 0.01 0.01 0.01 0.01 0.01 0.01 0.01 0.01 0.02 0.03 0.03 0.04 0.03 0.03 0.01 0.01 0.02 0.02 0.02 0.02 0.02 0.02 0.02 0.03 0.04 0.06 0.07 0.06 0.06
0.00 0.00 0.00 0.00 0.00 0.00 0.00 0.00 0.00 0.00 0.00 0.00 0.00 0.00 0.01 0.02 0.02 0.02 0.03 0.02 0.01 0.01 0.01 0.02 0.01 0.02 0.02 0.01 0.01 0.02 0.02 0.02 0.02 0.01 0.01 0.00 0.01 0.01 0.01 0.01 0.02 0.02 0.02 0.02 0.02 0.04 0.04 0.04 0.05
0.00 0.00 0.00 0.01 0.01 0.01 0.00 0.00 0.01 0.01 0.00 0.00 0.00 0.00 0.00 0.00 0.01 0.01 0.03 0.04 0.04 0.02 0.02 0.02 0.02 0.03 0.03 0.03 0.02 0.02 0.02 0.01 0.01 0.01 0.01 0.01 0.01 0.01 0.01 0.01 0.02 0.03 0.05 0.05 0.05 0.05 0.03 0.03 0.03
0.00 0.00 0.00 0.01 0.01 0.01 0.00 0.01 0.01 0.01 0.00 0.00 0.00 0.00 0.00 0.00 0.00 0.01 0.01 0.01 0.03 0.03 0.03 0.03 0.03 0.04 0.05 0.04 0.04 0.03 0.02 0.02 0.01 0.01 0.01 0.01 0.01 0.01 0.00 0.00 0.01 0.01 0.02 0.04 0.04 0.04 0.03 0.03 0.03
0.00 0.00 0.00 0.01 0.01 0.01 0.01 0.01 0.01 0.01 0.01 0.01 0.01 0.01 0.01 0.01 0.01 0.01 0.01 0.01 0.02 0.03 0.05 0.05 0.06 0.06 0.06 0.05 0.04 0.03 0.04 0.03 0.02 0.02 0.01 0.01 0.01 0.00 0.00 0.00 0.00 0.01 0.01 0.02 0.02 0.02 0.02 0.03 0.03
MSLP
1008.48 1008.82 1009.29 1009.80 1010.24 1010.54 1010.64 1010.53 1010.26 1009.89 1009.51 1009.20 1008.99 1008.88 1008.85 1008.85 1008.83 1008.76 1008.67 1008.59 1008.58 1008.69 1008.97 1009.40 1009.94 1010.51 1011.03 1011.42 1011.64 1011.69 1011.62 1011.50 1011.41 1011.42 1011.54 1011.76 1012.06 1012.35 1012.60 1012.75 1012.80 1012.78 1012.71 1012.65 1012.65 1012.71 1012.84 1013.03 1013.26
1008.57 1009.01 1009.55 1010.08 1010.51 1010.74 1010.74 1010.51 1010.11 1009.60 1009.10 1008.67 1008.37 1008.20 1008.14 1008.15 1008.17 1008.17 1008.17 1008.19 1008.29 1008.50 1008.86 1009.36 1009.96 1010.58 1011.14 1011.57 1011.83 1011.93 1011.90 1011.82 1011.74 1011.74 1011.84 1012.02 1012.26 1012.49 1012.68 1012.78 1012.80 1012.75 1012.68 1012.62 1012.62 1012.68 1012.81 1012.99 1013.18
1008.79 1009.31 1009.87 1010.39 1010.76 1010.90 1010.79 1010.44 1009.92 1009.30 1008.70 1008.20 1007.84 1007.63 1007.56 1007.58 1007.63 1007.70 1007.77 1007.88 1008.06 1008.35 1008.77 1009.32 1009.95 1010.61 1011.20 1011.68 1011.99 1012.14 1012.17 1012.13 1012.08 1012.08 1012.14 1012.28 1012.45 1012.62 1012.74 1012.80 1012.78 1012.73 1012.66 1012.61 1012.62 1012.69 1012.81 1012.97 1013.13
1009.12 1009.67 1010.22 1010.68 1010.96 1011.00 1010.79 1010.34 1009.73 1009.05 1008.40 1007.86 1007.48 1007.27 1007.20 1007.23 1007.32 1007.43 1007.55 1007.71 1007.93 1008.26 1008.71 1009.28 1009.93 1010.60 1011.22 1011.73 1012.09 1012.30 1012.38 1012.39 1012.38 1012.38 1012.43 1012.53 1012.64 1012.75 1012.82 1012.83 1012.80 1012.74 1012.68 1012.65 1012.67 1012.74 1012.85 1012.98 1013.12
1009.50 1010.03 1010.52 1010.90 1011.07 1011.01 1010.71 1010.20 1009.55 1008.85 1008.20 1007.68 1007.32 1007.13 1007.08 1007.13 1007.24 1007.37 1007.51 1007.68 1007.92 1008.25 1008.70 1009.25 1009.89 1010.55 1011.17 1011.70 1012.10 1012.37 1012.51 1012.57 1012.59 1012.62 1012.66 1012.73 1012.80 1012.86 1012.89 1012.88 1012.84 1012.78 1012.74 1012.72 1012.75 1012.82 1012.92 1013.02 1013.12
1009.85 1010.32 1010.72 1010.99 1011.06 1010.91 1010.54 1010.00 1009.36 1008.70 1008.10 1007.63 1007.32 1007.17 1007.15 1007.22 1007.34 1007.47 1007.61 1007.77 1007.99 1008.30 1008.71 1009.23 1009.82 1010.45 1011.06 1011.59 1012.02 1012.32 1012.51 1012.62 1012.69 1012.74 1012.79 1012.84 1012.89 1012.93 1012.93 1012.91 1012.86 1012.82 1012.79 1012.79 1012.82 1012.89 1012.96 1013.04 1013.10
1010.10 1010.48 1010.78 1010.92 1010.89 1010.67 1010.27 1009.74 1009.14 1008.55 1008.03 1007.64 1007.40 1007.30 1007.31 1007.39 1007.51 1007.63 1007.75 1007.89 1008.08 1008.34 1008.71 1009.17 1009.72 1010.30 1010.87 1011.38 1011.81 1012.13 1012.36 1012.52 1012.62 1012.70 1012.77 1012.83 1012.87 1012.90 1012.89 1012.87 1012.83 1012.79 1012.77 1012.79 1012.82 1012.88 1012.95 1013.00 1013.03
1010.21 1010.49 1010.67 1010.71 1010.59 1010.31 1009.91 1009.41 1008.87 1008.36 1007.94 1007.63 1007.45 1007.39 1007.42 1007.51 1007.61 1007.72 1007.83 1007.95 1008.11 1008.34 1008.66 1009.07 1009.56 1010.08 1010.61 1011.09 1011.50 1011.82 1012.07 1012.26 1012.39 1012.50 1012.60 1012.67 1012.72 1012.75 1012.75 1012.73 1012.69 1012.67 1012.67 1012.69 1012.73 1012.79 1012.85 1012.89 1012.92
1010.19 1010.37 1010.43 1010.37 1010.18 1009.88 1009.48 1009.02 1008.55 1008.12 1007.77 1007.52 1007.38 1007.35 1007.39 1007.47 1007.57 1007.67 1007.77 1007.88 1008.04 1008.25 1008.55 1008.92 1009.35 1009.82 1010.29 1010.73 1011.11 1011.42 1011.68 1011.88 1012.04 1012.18 1012.29 1012.39 1012.46 1012.50 1012.51 1012.49 1012.47 1012.46 1012.47 1012.50 1012.56 1012.62 1012.68 1012.73 1012.77
1010.07 1010.14 1010.11 1009.97 1009.73 1009.40 1009.02 1008.60 1008.18 1007.80 1007.50 1007.29 1007.17 1007.13 1007.16 1007.24 1007.33 1007.43 1007.54 1007.68 1007.85 1008.08 1008.37 1008.72 1009.12 1009.55 1009.96 1010.35 1010.69 1010.98 1011.23 1011.44 1011.62 1011.78 1011.92 1012.04 1012.13 1012.19 1012.21 1012.21 1012.21 1012.21 1012.23 1012.27 1012.34 1012.43 1012.51 1012.58 1012.64
1009.90 1009.88 1009.76 1009.56 1009.28 1008.95 1008.57 1008.18 1007.79 1007.45 1007.16 1006.94 1006.81 1006.76 1006.77 1006.83 1006.92 1007.04 1007.19 1007.36 1007.58 1007.85 1008.16 1008.52 1008.90 1009.29 1009.67 1010.01 1010.31 1010.57 1010.80 1011.01 1011.20 1011.38 1011.55 1011.70 1011.81 1011.89 1011.94 1011.95 1011.96 1011.98 1012.01 1012.07 1012.16 1012.26 1012.37 1012.47 1012.56
1009.72 1009.63 1009.44 1009.19 1008.89 1008.55 1008.18 1007.79 1007.42 1007.07 1006.77 1006.53 1006.36 1006.28 1006.26 1006.31 1006.42 1006.57 1006.76 1007.00 1007.28 1007.61 1007.96 1008.34 1008.73 1009.10 1009.44 1009.75 1010.01 1010.24 1010.45 1010.65 1010.85 1011.05 1011.24 1011.42 1011.57 1011.68 1011.74 1011.78 1011.80 1011.83 1011.88 1011.96 1012.06 1012.19 1012.32 1012.44 1012.56
1009.57 1009.41 1009.18 1008.90 1008.58 1008.23 1007.85 1007.46 1007.07 1006.70 1006.37 1006.10 1005.89 1005.77 1005.74 1005.78 1005.91 1006.10 1006.36 1006.66 1007.02 1007.41 1007.82 1008.23 1008.63 1008.99 1009.31 1009.59 1009.82 1010.02 1010.21 1010.40 1010.60 1010.82 1011.04 1011.25 1011.43 1011.57 1011.67 1011.72 1011.76 1011.80 1011.86 1011.95 1012.07 1012.21 1012.36 1012.50 1012.63
1009.47 1009.26 1008.99 1008.69 1008.35 1007.98 1007.60 1007.19 1006.78 1006.38 1006.01 1005.70 1005.46 1005.31 1005.27 1005.32 1005.47 1005.71 1006.02 1006.39 1006.81 1007.27 1007.73 1008.18 1008.59 1008.96 1009.27 1009.52 1009.72 1009.90 1010.07 1010.26 1010.47 1010.70 1010.94 1011.18 1011.40 1011.57 1011.69 1011.77 1011.83 1011.88 1011.94 1012.03 1012.15 1012.30 1012.45 1012.60 1012.73
1009.42 1009.17 1008.87 1008.55 1008.19 1007.81 1007.41 1006.98 1006.54 1006.10 1005.70 1005.36 1005.10 1004.95 1004.90 1004.97 1005.14 1005.41 1005.77 1006.20 1006.67 1007.17 1007.67 1008.15 1008.58 1008.96 1009.26 1009.49 1009.68 1009.84 1010.00 1010.17 1010.38 1010.63 1010.89 1011.15 1011.40 1011.60 1011.76 1011.87 1011.94 1012.00 1012.06 1012.15 1012.26 1012.39 1012.54 1012.68 1012.81
1009.39 1009.12 1008.81 1008.47 1008.10 1007.71 1007.28 1006.82 1006.35 1005.89 1005.46 1005.11 1004.84 1004.68 1004.64 1004.71 1004.91 1005.20 1005.58 1006.03 1006.53 1007.05 1007.58 1008.08 1008.53 1008.92 1009.22 1009.46 1009.64 1009.78 1009.93 1010.09 1010.29 1010.54 1010.81 1011.10 1011.37 1011.61 1011.79 1011.92 1012.01 1012.08 1012.14 1012.22 1012.32 1012.43 1012.56 1012.69 1012.80
1009.36 1009.09 1008.79 1008.45 1008.08 1007.67 1007.21 1006.73 1006.23 1005.74 1005.30 1004.93 1004.65 1004.49 1004.45 1004.53 1004.72 1005.01 1005.39 1005.84 1006.33 1006.86 1007.40 1007.92 1008.39 1008.79 1009.11 1009.35 1009.53 1009.67 1009.80 1009.95 1010.14 1010.38 1010.66 1010.96 1011.25 1011.51 1011.73 1011.89 1012.00 1012.07 1012.13 1012.20 1012.28 1012.38 1012.49 1012.60 1012.70
1009.33 1009.09 1008.81 1008.48 1008.12 1007.69 1007.22 1006.71 1006.18 1005.67 1005.21 1004.82 1004.54 1004.37 1004.32 1004.38 1004.54 1004.80 1005.14 1005.56 1006.03 1006.55 1007.09 1007.62 1008.11 1008.53 1008.88 1009.15 1009.34 1009.48 1009.60 1009.73 1009.91 1010.13 1010.40 1010.71 1011.02 1011.30 1011.55 1011.73 1011.86 1011.95 1012.02 1012.07 1012.14 1012.22 1012.32 1012.42 1012.52
1009.29 1009.10 1008.86 1008.58 1008.22 1007.80 1007.31 1006.78 1006.22 1005.69 1005.20 1004.80 1004.49 1004.30 1004.21 1004.22 1004.33 1004.53 1004.81 1005.17 1005.61 1006.10 1006.63 1007.17 1007.69 1008.16 1008.54 1008.84 1009.05 1009.20 1009.32 1009.45 1009.60 1009.81 1010.07 1010.37 1010.69 1011.00 1011.27 1011.49 1011.65 1011.75 1011.83 1011.88 1011.94 1012.01 1012.10 1012.20 1012.30
1009.23 1009.11 1008.95 1008.71 1008.39 1007.98 1007.49 1006.94 1006.36 1005.80 1005.29 1004.85 1004.51 1004.27 1004.12 1004.07 1004.10 1004.22 1004.42 1004.71 1005.09 1005.55 1006.08 1006.64 1007.19 1007.70 1008.13 1008.48 1008.72 1008.89 1009.02 1009.13 1009.28 1009.47 1009.72 1010.02 1010.35 1010.68 1010.98 1011.23 1011.42 1011.54 1011.63 1011.68 1011.74 1011.80 1011.89 1011.99 1012.12
1009.14 1009.11 1009.03 1008.87 1008.60 1008.22 1007.74 1007.19 1006.60 1006.02 1005.48 1005.01 1004.62 1004.32 1004.11 1003.97 1003.91 1003.93 1004.04 1004.25 1004.57 1005.00 1005.52 1006.09 1006.68 1007.24 1007.72 1008.11 1008.40 1008.60 1008.74 1008.86 1009.00 1009.18 1009.43 1009.73 1010.07 1010.42 1010.75 1011.03 1011.24 1011.38 1011.48 1011.54 1011.59 1011.66 1011.74 1011.86 1012.00
1009.02 1009.08 1009.09 1009.00 1008.80 1008.47 1008.03 1007.50 1006.92 1006.34 1005.79 1005.29 1004.86 1004.50 1004.21 1003.98 1003.83 1003.75 1003.77 1003.90 1004.16 1004.55 1005.05 1005.63 1006.25 1006.85 1007.38 1007.82 1008.15 1008.39 1008.55 1008.68 1008.83 1009.01 1009.27 1009.58 1009.93 1010.30 1010.64 1010.94 1011.17 1011.33 1011.43 1011.49 1011.54 1011.59 1011.68 1011.80 1011.95
1008.87 1009.01 1009.10 1009.09 1008.95 1008.69 1008.31 1007.84 1007.30 1006.75 1006.21 1005.70 1005.25 1004.84 1004.49 1004.19 1003.94 1003.78 1003.71 1003.77 1003.97 1004.31 1004.79 1005.36 1005.98 1006.60 1007.16 1007.64 1008.00 1008.27 1008.46 1008.62 1008.78 1008.99 1009.25 1009.58 1009.94 1010.32 1010.67 1010.98 1011.21 1011.36 1011.46 1011.51 1011.54 1011.59 1011.66 1011.78 1011.95
1008.71 1008.90 1009.04 1009.10 1009.04 1008.86 1008.57 1008.18 1007.72 1007.23 1006.74 1006.26 1005.81 1005.38 1004.99 1004.63 1004.32 1004.09 1003.95 1003.94 1004.07 1004.36 1004.78 1005.32 1005.92 1006.52 1007.09 1007.57 1007.95 1008.25 1008.47 1008.66 1008.85 1009.08 1009.37 1009.71 1010.08 1010.46 1010.81 1011.10 1011.32 1011.46 1011.53 1011.55 1011.56 1011.58 1011.65 1011.76 1011.92
1008.58 1008.77 1008.94 1009.05 1009.07 1008.98 1008.79 1008.51 1008.17 1007.78 1007.37 1006.95 1006.54 1006.13 1005.73 1005.34 1004.99 1004.70 1004.50 1004.43 1004.49 1004.70 1005.06 1005.52 1006.06 1006.62 1007.14 1007.60 1007.99 1008.29 1008.54 1008.76 1008.99 1009.25 1009.56 1009.92 1010.30 1010.67 1011.00 1011.27 1011.45 1011.55 1011.58 1011.57 1011.54 1011.54 1011.58 1011.68 1011.83
1008.53 1008.68 1008.85 1008.99 1009.07 1009.08 1009.01 1008.87 1008.66 1008.40 1008.10 1007.78 1007.43 1007.07 1006.68 1006.30 1005.93 1005.61 1005.36 1005.22 1005.20 1005.33 1005.58 1005.95 1006.38 1006.85 1007.30 1007.71 1008.06 1008.37 1008.63 1008.88 1009.15 1009.45 1009.79 1010.16 1010.53 1010.89 1011.19 1011.42 1011.55 1011.60 1011.58 1011.52 1011.46 1011.42 1011.44 1011.52 1011.66
1008.62 1008.71 1008.85 1009.00 1009.14 1009.24 1009.29 1009.29 1009.22 1009.10 1008.93 1008.72 1008.45 1008.15 1007.81 1007.45 1007.08 1006.74 1006.45 1006.24 1006.15 1006.17 1006.30 1006.54 1006.84 1007.18 1007.53 1007.86 1008.17 1008.45 1008.72 1009.00 1009.30 1009.63 1010.00 1010.38 1010.75 1011.08 1011.35 1011.53 1011.61 1011.60 1011.53 1011.43 1011.33 1011.26 1011.25 1011.31 1011.44
1008.91 1008.92 1009.02 1009.17 1009.36 1009.54 1009.71 1009.83 1009.90 1009.91 1009.86 1009.75 1009.57 1009.32 1009.03 1008.69 1008.34 1007.98 1007.66 1007.40 1007.22 1007.13 1007.14 1007.23 1007.39 1007.59 1007.81 1008.05 1008.30 1008.55 1008.82 1009.11 1009.45 1009.81 1010.20 1010.59 1010.95 1011.26 1011.49 1011.62 1011.65 1011.59 1011.48 1011.34 1011.20 1011.11 1011.08 1011.12 1011.24
1009.43 1009.37 1009.44 1009.59 1009.81 1010.06 1010.31 1010.54 1010.72 1010.83 1010.87 1010.83 1010.71 1010.51 1010.25 1009.94 1009.60 1009.24 1008.90 1008.59 1008.33 1008.14 1008.03 1007.98 1007.99 1008.05 1008.15 1008.29 1008.46 1008.68 1008.94 1009.25 1009.61 1010.00 1010.40 1010.80 1011.15 1011.44 1011.64 1011.73 1011.72 1011.64 1011.49 1011.33 1011.17 1011.06 1011.02 1011.04 1011.13
1010.18 1010.08 1010.12 1010.28 1010.52 1010.82 1011.13 1011.42 1011.67 1011.83 1011.92 1011.91 1011.82 1011.64 1011.39 1011.10 1010.76 1010.40 1010.04 1009.70 1009.39 1009.12 1008.90 1008.72 1008.61 1008.54 1008.53 1008.59 1008.70 1008.88 1009.13 1009.45 1009.82 1010.23 1010.65 1011.05 1011.39 1011.67 1011.84 1011.91 1011.88 1011.78 1011.62 1011.45 1011.29 1011.18 1011.12 1011.12 1011.18
Thickness
5826 5831 5833 5831 5827 5821 5806 5811 5818 5815 5816 5821 5821 5817 5811 5805 5798 5787 5804 5810 5807 5804 5796 5788 5783 5781 5779 5778 5777 5776 5775 5774 5772 5772 5771 5770 5770 5770 5769 5768 5767 5766 5765 5765 5764 5764 5763 5763 5763
5833 5833 5831 5832 5823 5804 5801 5814 5813 5814 5819 5823 5820 5816 5810 5805 5806 5803 5805 5806 5805 5802 5796 5789 5782 5779 5778 5776 5775 5774 5773 5772 5771 5770 5769 5768 5768 5768 5767 5766 5765 5764 5763 5762 5762 5761 5760 5760 5760
5834 5833 5830 5832 5816 5805 5803 5814 5816 5820 5824 5821 5816 5815 5809 5802 5804 5805 5807 5806 5804 5801 5796 5786 5780 5778 5776 5774 5773 5772 5771 5770 5769 5768 5767 5767 5766 5765 5765 5763 5762 5761 5760 5759 5759 5759 5758 5758 5757
5833 5832 5832 5824 5808 5812 5815 5819 5821 5819 5820 5821 5817 5808 5808 5809 5809 5810 5807 5806 5803 5800 5795 5786 5779 5776 5774 5773 5771 5770 5769 5768 5767 5766 5766 5765 5764 5763 5762 5761 5760 5759 5758 5757 5757 5757 5756 5756 5755
5834 5830 5822 5813 5811 5817 5823 5824 5824 5818 5816 5817 5815 5805 5800 5807 5812 5810 5806 5804 5801 5798 5794 5786 5778 5775 5773 5771 5770 5769 5768 5766 5765 5765 5764 5763 5762 5761 5760 5759 5758 5757 5756 5756 5755 5754 5754 5754 5753
5829 5829 5814 5805 5809 5816 5823 5826 5824 5819 5818 5817 5814 5805 5799 5807 5807 5806 5805 5802 5801 5797 5793 5785 5777 5774 5772 5770 5769 5767 5766 5765 5764 5763 5762 5761 5761 5760 5759 5758 5757 5756 5755 5754 5753 5753 5752 5752 5751
5823 5821 5811 5810 5807 5811 5818 5827 5822 5819 5815 5816 5819 5806 5800 5803 5805 5806 5804 5802 5799 5796 5792 5787 5782 5776 5772 5769 5767 5766 5765 5764 5763 5762 5761 5760 5759 5758 5757 5756 5755 5754 5754 5753 5752 5751 5751 5750 5750
5831 5822 5811 5810 5806 5810 5822 5825 5825 5821 5817 5825 5822 5807 5800 5803 5806 5804 5802 5799 5797 5793 5791 5787 5784 5781 5777 5772 5767 5765 5764 5763 5762 5761 5760 5759 5758 5757 5756 5755 5753 5753 5752 5751 5750 5750 5749 5749 5748
5828 5813 5806 5809 5808 5813 5822 5819 5823 5829 5823 5820 5821 5818 5816 5810 5806 5800 5796 5794 5792 5790 5789 5787 5785 5782 5780 5777 5770 5767 5764 5763 5763 5762 5760 5759 5761 5760 5757 5755 5752 5752 5751 5750 5749 5749 5748 5748 5747
5819 5808 5811 5819 5821 5818 5820 5819 5820 5819 5814 5813 5813 5814 5813 5807 5802 5797 5794 5790 5788 5787 5787 5787 5785 5783 5780 5777 5773 5771 5769 5766 5765 5765 5763 5762 5760 5759 5758 5754 5752 5752 5751 5750 5750 5749 5749 5749 5749
5817 5811 5817 5820 5823 5821 5818 5819 5823 5816 5810 5815 5811 5809 5807 5803 5800 5797 5797 5794 5791 5790 5787 5787 5784 5782 5780 5777 5775 5773 5771 5767 5766 5764 5762 5761 5760 5759 5758 5757 5755 5754 5753 5753 5751 5751 5751 5751 5750
5811 5814 5817 5818 5821 5818 5816 5818 5817 5817 5817 5825 5823 5816 5808 5802 5800 5799 5798 5796 5794 5790 5787 5786 5784 5781 5778 5777 5775 5773 5771 5768 5767 5763 5762 5761 5760 5758 5758 5757 5756 5755 5754 5753 5753 5751 5750 5749 5748
5806 5809 5814 5818 5818 5818 5816 5814 5814 5815 5823 5826 5822 5814 5807 5804 5803 5802 5802 5799 5795 5790 5788 5786 5783 5779 5776 5773 5772 5772 5770 5769 5766 5763 5761 5760 5760 5758 5758 5756 5754 5755 5754 5753 5752 5751 5749 5747 5747
5808 5809 5810 5814 5815 5815 5810 5812 5812 5814 5821 5819 5815 5810 5807 5805 5803 5801 5798 5795 5792 5789 5787 5785 5781 5778 5774 5772 5770 5769 5769 5766 5766 5763 5761 5759 5758 5756 5755 5754 5753 5754 5753 5752 5750 5749 5748 5747 5747
5806 5799 5802 5809 5811 5812 5810 5801 5808 5817 5817 5812 5810 5808 5806 5805 5804 5799 5798 5795 5792 5788 5785 5782 5779 5777 5773 5771 5770 5769 5768 5766 5765 5762 5759 5757 5756 5754 5753 5753 5752 5752 5751 5750 5749 5748 5747 5746 5746
5797 5792 5789 5803 5806 5808 5799 5793 5811 5818 5812 5808 5809 5808 5805 5803 5804 5802 5799 5795 5792 5788 5784 5781 5780 5776 5772 5770 5768 5768 5766 5764 5762 5760 5758 5755 5753 5752 5751 5751 5751 5750 5750 5749 5748 5747 5745 5744 5743
5786 5783 5788 5795 5803 5803 5797 5796 5809 5814 5810 5805 5806 5806 5804 5802 5801 5801 5798 5794 5792 5788 5783 5779 5778 5775 5772 5769 5766 5765 5762 5761 5760 5759 5757 5754 5751 5750 5749 5749 5748 5748 5748 5748 5747 5745 5744 5741 5741
5778 5783 5785 5787 5796 5796 5792 5797 5805 5809 5808 5806 5805 5805 5802 5800 5799 5801 5798 5795 5791 5787 5783 5779 5775 5773 5770 5767 5763 5762 5760 5759 5758 5757 5754 5751 5750 5748 5747 5747 5745 5746 5746 5745 5743 5741 5740 5739 5739
5784 5781 5781 5788 5795 5789 5789 5793 5800 5804 5804 5804 5804 5803 5802 5800 5802 5801 5798 5794 5790 5786 5781 5777 5774 5771 5767 5765 5762 5759 5757 5757 5757 5755 5751 5749 5747 5745 5744 5746 5743 5743 5743 5742 5741 5739 5737 5737 5738
5776 5773 5778 5784 5790 5785 5786 5789 5800 5801 5800 5803 5802 5802 5801 5800 5799 5797 5795 5792 5788 5784 5781 5777 5772 5770 5767 5765 5762 5759 5758 5757 5755 5753 5749 5748 5746 5745 5745 5743 5743 5742 5740 5738 5737 5736 5735 5736 5735
5770 5771 5775 5776 5781 5783 5779 5780 5790 5797 5800 5800 5802 5803 5803 5800 5796 5794 5792 5790 5788 5784 5780 5778 5774 5770 5767 5764 5761 5758 5754 5753 5751 5749 5748 5746 5745 5743 5742 5741 5741 5739 5740 5737 5734 5733 5732 5731 5732
5763 5778 5776 5773 5768 5772 5773 5766 5784 5791 5789 5791 5794 5797 5798 5799 5797 5794 5792 5789 5787 5785 5782 5779 5774 5770 5766 5763 5760 5756 5752 5750 5749 5749 5748 5745 5743 5742 5740 5738 5737 5736 5737 5734 5733 5733 5731 5729 5729
5768 5777 5772 5770 5766 5766 5771 5762 5779 5787 5780 5784 5789 5792 5794 5795 5795 5793 5792 5790 5788 5786 5783 5778 5773 5769 5765 5762 5758 5754 5753 5751 5749 5747 5743 5742 5741 5739 5738 5736 5735 5734 5734 5732 5730 5729 5729 5730 5728
5769 5766 5763 5765 5765 5749 5766 5760 5767 5781 5779 5783 5787 5789 5789 5790 5791 5791 5791 5789 5786 5784 5781 5777 5771 5766 5763 5760 5757 5753 5750 5747 5745 5742 5740 5740 5739 5738 5736 5734 5733 5732 5731 5729 5728 5727 5727 5726 5725
5759 5750 5740 5739 5742 5750 5768 5757 5765 5780 5784 5783 5782 5783 5785 5786 5786 5785 5784 5783 5781 5779 5776 5773 5768 5763 5761 5757 5755 5752 5748 5745 5741 5740 5738 5737 5737 5735 5732 5733 5730 5730 5728 5727 5726 5725 5725 5724 5723
5751 5751 5737 5729 5738 5752 5756 5753 5768 5779 5782 5782 5782 5781 5780 5780 5781 5780 5780 5779 5777 5775 5772 5769 5765 5760 5757 5754 5751 5749 5747 5744 5742 5739 5738 5736 5735 5734 5731 5729 5727 5727 5726 5725 5724 5724 5723 5722 5722
5745 5748 5760 5747 5746 5742 5752 5758 5764 5771 5771 5773 5774 5774 5773 5774 5775 5775 5774 5774 5772 5770 5768 5766 5762 5757 5754 5751 5747 5745 5743 5741 5739 5736 5735 5734 5731 5730 5727 5725 5723 5723 5722 5721 5721 5721 5720 5719 5719
5752 5751 5743 5737 5723 5724 5741 5746 5753 5755 5760 5765 5767 5767 5767 5769 5769 5769 5768 5767 5766 5766 5763 5761 5758 5754 5751 5748 5745 5742 5739 5737 5735 5733 5731 5729 5727 5725 5723 5721 5719 5718 5718 5717 5716 5717 5716 5715 5715
5735 5736 5736 5738 5739 5725 5724 5742 5763 5758 5759 5759 5762 5764 5764 5764 5764 5762 5762 5762 5761 5759 5758 5754 5752 5749 5746 5743 5740 5737 5734 5733 5731 5728 5726 5724 5722 5720 5718 5716 5715 5714 5713 5712 5711 5712 5712 5711 5711
5737 5735 5732 5720 5721 5730 5729 5738 5761 5759 5758 5757 5758 5759 5759 5759 5759 5757 5756 5755 5754 5752 5750 5747 5745 5743 5741 5738 5734 5732 5729 5727 5725 5723 5721 5719 5717 5716 5714 5712 5710 5710 5709 5708 5707 5706 5706 5706 5705